Temperature
16 16 16 16 16 15 15 15 15 15 15 15 15 15 15 15 15 15 15 14 14 15 15 15 15 15 15 15 15 15 15 15 15 15 15 15 15 15 15 15 15 15 15
16 16 16 15 15 15 15 15 15 15 15 15 15 15 15 14 14 14 14 14 14 14 14 14 15 15 15 15 15 14 14 14 14 15 15 15 15 15 15 15 15 15 15
16 16 16 15 15 15 15 15 15 15 15 15 15 14 14 14 14 14 14 14 14 14 14 14 14 14 14 14 14 14 14 14 14 14 14 14 15 15 15 15 15 15 15
16 16 15 15 15 15 15 15 15 15 15 15 14 14 14 14 14 14 14 14 14 14 14 14 14 14 14 14 14 14 14 14 14 14 14 14 14 14 14 14 14 14 14
16 15 15 15 15 15 15 15 15 15 15 14 14 14 14 14 14 14 14 14 14 13 13 13 13 13 13 14 14 14 13 13 14 14 14 14 14 14 14 14 14 14 14
15 15 15 15 15 15 15 14 14 14 14 14 14 14 14 14 14 14 14 13 13 13 13 13 13 13 13 13 13 13 13 13 13 13 13 13 13 13 13 13 14 14 14
15 15 15 15 15 14 14 14 14 14 14 14 14 14 14 14 14 14 14 13 13 13 13 13 13 13 13 13 13 13 13 13 13 13 13 13 13 13 13 13 13 13 14
15 15 15 14 14 14 14 14 14 14 14 14 14 14 13 14 14 14 13 13 13 13 13 13 13 13 13 13 13 13 13 13 13 13 13 13 13 13 13 13 13 13 13
15 15 14 14 14 14 14 14 14 13 13 13 13 13 13 13 13 13 13 13 13 13 13 12 12 12 12 12 12 13 13 13 13 13 12 12 13 13 13 13 13 13 13
15 14 14 14 14 14 14 13 13 13 13 13 13 13 13 13 13 12 13 13 13 13 12 12 12 12 12 12 12 12 12 12 12 12 12 12 12 12 12 12 12 13 13
14 14 14 14 14 13 13 13 13 13 13 13 13 13 13 13 13 12 12 12 12 12 12 12 12 12 12 12 12 12 12 12 12 12 12 12 12 12 12 12 12 12 12
14 14 14 13 13 13 13 13 13 12 13 13 13 13 13 12 12 12 12 12 12 12 12 12 12 12 12 11 11 12 12 12 12 12 12 12 12 12 12 12 12 12 12
13 13 13 13 13 13 13 13 12 12 12 12 12 12 12 12 12 12 12 12 12 12 12 12 12 11 11 11 11 11 11 11 11 12 12 12 12 12 12 12 12 12 12
13 13 13 13 13 13 13 12 12 12 12 12 12 12 12 12 12 12 12 11 11 11 11 11 11 11 11 11 11 11 11 11 11 11 11 11 11 11 11 11 11 11 11
13 13 13 13 13 13 12 12 12 12 12 12 12 12 12 12 12 12 11 11 11 11 11 11 11 11 11 11 11 11 11 11 11 11 11 11 11 11 11 11 11 11 11
12 12 12 12 12 12 12 12 12 12 11 11 11 11 11 11 11 11 11 11 11 11 10 11 11 11 11 11 11 10 11 11 11 11 11 11 11 11 11 11 11 11 11
12 12 12 12 12 12 12 12 11 11 11 11 11 11 11 11 11 11 11 11 11 10 10 10 10 10 10 10 10 10 10 10 10 10 10 10 10 10 10 10 11 11 11
12 12 12 11 11 11 11 11 11 11 11 11 11 10 10 10 10 10 10 10 10 10 10 10 10 10 10 10 10 10 10 10 10 10 10 10 10 10 10 10 10 10 10
11 11 11 11 11 11 11 11 10 10 10 10 10 10 10 10 10 10 10 10 10 10 10 9 9 9 9 9 10 10 9 10 10 10 10 10 10 10 10 10 10 10 10
11 11 11 11 10 11 10 10 10 10 10 10 10 10 10 10 10 10 9 9 9 9 9 9 9 9 9 9 9 9 9 9 9 9 9 9 9 9 10 10 10 10 10
10 10 10 10 10 10 10 10 10 10 10 10 10 10 10 10 10 9 9 9 9 9 9 9 9 8 8 8 8 8 8 9 9 9 9 9 9 9 9 9 9 9 9
10 10 10 9 9 9 9 9 9 9 9 9 9 9 9 9 9 9 9 9 8 8 8 8 8 8 8 8 8 8 8 8 8 8 9 9 9 9 9 9 9 9 9
10 9 9 9 9 9 9 9 9 9 9 9 9 9 9 9 8 8 8 8 8 8 8 8 8 8 8 8 8 8 8 8 8 8 8 8 8 9 9 9 9 9 9
9 9 9 8 8 8 8 9 8 8 8 8 8 8 8 8 8 8 8 8 8 8 7 7 7 7 7 7 7 7 7 7 7 7 7 8 8 8 8 8 8 9 9
8 8 8 8 8 8 8 8 8 8 8 8 7 7 7 7 7 7 7 7 7 7 7 7 7 7 7 7 7 7 7 7 7 7 7 7 7 8 8 8 8 8 8
8 8 8 8 8 7 7 7 7 7 7 7 7 7 7 7 7 7 7 7 6 6 6 6 6 7 6 6 6 6 7 6 6 6 6 6 7 7 7 7 8 8 8
Wind_Speed
3 2 2 3 3 4 3 3 3 4 4 5 6 7 6 7 8 9 9 12 13 13 13 13 13 13 13 12 11 11 11 11 10 11 11 11 11 10 11 11 11 11 10
3 3 3 3 4 4 4 3 4 4 3 4 5 6 6 6 7 8 9 10 12 13 13 13 13 13 12 11 10 10 11 11 11 11 11 11 11 10 10 10 10 10 10
5 4 3 3 3 5 5 5 5 4 3 4 4 4 4 5 6 7 8 8 9 11 12 13 13 13 12 11 11 10 10 11 11 11 11 11 11 10 10 10 10 9 9
6 5 3 3 5 5 4 3 3 3 3 3 3 3 3 4 5 5 6 7 8 8 10 11 12 12 12 11 10 10 10 10 11 11 10 11 11 10 9 9 10 10 9
6 5 3 3 5 4 4 4 3 3 2 3 2 2 2 3 3 4 4 6 8 8 8 9 10 10 11 11 11 11 11 10 10 10 10 10 10 9 9 9 9 9 9
6 5 2 4 4 3 3 4 4 3 2 2 3 3 1 2 3 3 4 4 6 7 7 7 7 8 10 11 10 10 10 9 9 9 9 9 9 9 8 8 8 8 8
5 4 3 3 3 3 3 3 3 3 3 3 2 2 2 3 3 3 3 3 4 5 5 6 6 6 7 9 9 8 8 8 8 8 8 8 9 8 8 7 7 7 7
5 4 3 2 3 3 3 3 3 3 2 3 2 1 2 2 3 2 2 3 3 3 3 5 6 6 7 7 7 7 7 6 6 6 6 7 7 7 7 8 7 7 6
5 5 4 3 2 2 2 2 3 2 2 2 2 2 2 1 2 2 1 2 2 2 2 3 4 5 7 7 6 7 7 5 5 4 5 5 5 6 6 6 7 6 6
4 4 3 3 2 2 2 2 2 1 1 1 2 2 1 1 1 1 2 1 1 2 1 2 3 5 6 6 6 6 7 6 3 3 3 3 3 4 5 5 6 6 5
3 3 3 2 1 1 2 2 2 1 1 1 1 2 2 2 1 0 1 2 2 1 0 1 2 3 4 5 5 4 5 5 3 3 2 2 2 3 3 4 4 5 5
1 2 2 2 1 1 1 1 1 1 1 1 1 1 1 1 1 1 1 2 1 2 1 1 2 2 3 4 4 4 3 3 3 2 2 2 1 1 2 2 3 3 4
1 1 2 1 1 1 1 1 1 0 1 0 0 0 0 1 1 1 1 1 2 1 1 1 1 3 3 3 3 2 1 1 2 2 1 1 1 1 1 1 2 2 2
0 0 1 1 1 1 1 1 0 0 0 0 1 0 0 1 1 0 0 0 1 2 1 1 1 2 2 3 2 2 2 0 1 1 1 1 0 0 1 2 2 2 3
0 1 0 0 0 1 1 0 0 1 0 1 1 1 1 1 1 1 0 1 1 1 2 1 1 1 2 1 1 2 2 1 1 0 0 1 1 1 0 1 2 3 3
1 1 1 0 1 0 0 0 1 1 1 1 1 1 1 1 1 1 0 0 0 1 2 2 1 1 1 1 1 1 2 2 2 1 1 1 1 1 2 1 1 2 3
1 1 1 1 1 1 1 0 1 1 1 1 1 1 1 0 1 1 1 1 1 0 2 2 1 1 1 1 2 1 2 2 3 2 2 2 2 2 2 1 1 1 2
1 0 0 1 1 1 1 1 1 2 2 1 2 1 1 1 0 0 0 1 1 1 1 2 2 1 1 1 1 2 1 1 2 3 3 3 3 3 4 3 2 2 2
1 1 0 1 1 1 1 1 1 2 2 2 2 1 1 1 0 0 0 1 2 2 0 1 2 2 1 1 1 2 1 0 1 2 4 5 5 5 4 4 4 4 3
2 2 1 1 1 1 0 1 2 2 3 2 1 1 1 1 1 1 1 1 1 1 1 1 2 2 2 1 1 1 2 2 2 2 2 3 4 5 5 5 5 5 5
2 2 1 1 1 0 1 1 2 3 3 3 2 1 1 1 0 1 1 1 1 1 1 1 1 2 2 1 1 1 2 3 3 1 1 1 2 2 4 6 6 6 5
2 2 1 1 0 1 1 2 2 3 3 3 2 1 1 1 0 1 2 2 2 2 2 1 2 2 3 3 2 2 2 2 2 2 1 3 2 2 3 4 6 5 5
2 2 2 1 0 0 0 1 2 2 3 2 2 2 2 1 1 1 2 2 2 4 4 3 3 4 3 3 2 3 3 3 3 3 1 3 2 2 3 5 6 6 6
2 1 2 1 0 1 1 2 3 2 2 1 2 2 2 2 2 2 1 1 2 3 4 3 3 5 4 4 4 4 4 4 4 2 1 2 2 2 3 4 6 7 7
2 2 1 1 1 1 1 1 1 2 2 1 1 2 2 1 4 3 1 2 2 3 5 6 6 6 6 5 4 2 2 2 3 3 1 1 2 2 2 2 4 7 7
2 1 1 1 1 1 0 1 1 1 1 1 1 1 1 2 4 4 1 1 3 4 4 5 5 6 5 5 5 3 3 3 3 3 2 1 1 1 2 2 1 2 4
Wind_Direction
46 58 65 58 42 48 54 38 42 46 37 42 45 50 55 68 80 82 79 70 66 64 63 67 66 66 67 69 73 73 74 74 76 76 75 72 71 70 69 69 65 65 69
58 53 55 52 42 40 40 44 49 45 46 47 45 48 49 60 76 90 96 81 70 66 62 61 64 64 64 67 72 76 76 75 74 75 73 71 70 70 71 70 68 65 67
59 52 43 45 45 44 43 47 46 38 43 53 52 53 54 55 67 80 93 96 84 69 64 61 59 60 59 62 69 75 79 77 74 72 70 69 70 68 69 71 70 68 67
61 56 43 44 49 47 44 53 51 34 34 43 40 38 52 58 62 74 91 95 91 83 71 66 61 57 56 60 67 75 78 78 76 73 70 68 67 67 68 70 70 70 69
53 60 45 52 51 47 35 40 46 32 33 42 51 58 66 76 62 64 69 83 86 93 89 80 70 61 58 61 68 75 76 75 76 74 70 67 66 66 68 67 68 71 69
48 59 55 59 59 58 41 37 34 29 23 25 37 45 59 90 65 58 61 72 83 86 93 94 88 74 61 63 71 74 73 73 77 73 70 66 65 63 63 65 65 67 67
45 57 48 58 64 64 57 51 38 23 18 22 41 25 24 66 65 62 57 61 71 78 85 93 94 88 78 63 66 71 70 72 74 71 68 67 64 61 60 59 62 63 63
38 48 53 62 69 72 56 51 59 30 9 28 41 44 20 13 1 63 63 55 58 68 66 75 83 86 87 82 67 60 63 65 69 70 69 68 64 61 59 57 58 60 62
38 35 35 57 66 79 76 56 69 66 13 354 24 55 68 350 319 346 52 62 57 60 41 67 75 83 86 84 73 57 49 56 58 66 70 69 67 63 60 56 55 56 57
45 37 31 47 59 67 78 56 62 59 69 350 340 5 29 87 70 329 334 30 44 47 39 41 65 84 83 89 80 62 48 38 51 58 65 67 68 67 61 56 53 53 56
49 48 41 40 47 88 102 87 65 48 57 41 14 353 360 21 22 83 313 326 342 336 43 45 64 85 93 95 98 73 52 38 44 48 52 60 72 67 62 58 51 51 55
33 50 57 47 39 56 89 102 112 92 60 23 23 29 32 21 343 356 320 317 315 299 316 81 83 95 87 90 92 73 64 49 40 34 39 37 47 58 55 51 46 49 47
21 11 46 56 28 32 62 76 108 135 126 64 289 355 341 309 315 345 3 319 324 299 344 7 70 110 97 99 103 91 92 51 26 16 19 48 40 33 28 29 31 37 32
205 95 60 69 43 15 33 66 96 351 136 256 301 279 246 275 298 35 142 357 336 321 341 313 347 55 79 114 117 110 139 330 326 340 352 196 165 47 28 25 17 21 14
342 66 61 56 124 60 30 49 213 226 217 221 272 289 278 267 286 300 199 154 161 293 304 295 345 332 58 99 164 151 165 231 278 275 246 219 210 203 167 53 31 22 8
356 329 319 348 332 47 63 352 287 278 270 250 226 242 287 309 331 342 318 316 158 192 266 278 289 298 2 353 302 229 187 226 207 210 201 244 250 232 222 225 306 2 3
336 339 342 16 15 348 346 1 306 303 285 292 304 251 242 268 5 336 337 343 309 219 273 289 309 312 337 335 325 267 221 190 187 202 217 236 230 227 231 232 249 338 351
257 275 355 18 35 4 345 4 328 321 285 272 286 301 288 316 188 263 345 315 294 288 247 288 304 305 282 283 288 290 240 204 193 220 223 233 232 233 237 238 244 259 287
308 295 152 80 27 332 334 343 318 301 289 271 249 257 281 342 347 12 328 302 299 319 285 285 295 297 287 309 340 321 304 229 224 241 231 236 235 237 242 242 239 244 259
299 275 213 177 235 264 356 344 329 314 305 292 248 199 205 189 206 231 275 283 295 307 295 290 289 299 298 301 5 335 311 300 276 269 252 244 236 237 245 240 240 237 246
298 300 279 251 244 211 16 4 327 319 306 302 297 238 188 157 130 167 240 257 273 275 274 276 280 316 314 319 303 291 300 294 279 266 281 247 221 225 233 238 239 239 238
313 318 307 277 290 1 31 14 347 308 303 306 310 305 260 165 320 265 248 257 254 249 259 262 276 272 290 292 285 297 298 306 293 288 310 277 224 244 222 223 232 234 241
298 294 296 292 169 101 42 347 339 301 292 309 322 316 314 336 24 303 282 268 278 273 259 241 244 253 259 267 278 277 270 265 266 265 286 275 273 260 239 242 235 239 241
281 274 284 303 319 289 287 318 323 304 300 325 319 313 316 335 358 353 324 309 288 294 282 275 246 251 257 247 240 250 258 276 282 274 231 263 268 265 265 240 237 236 238
281 262 258 270 243 240 250 300 323 276 287 297 315 350 353 2 342 345 321 288 295 298 306 309 307 299 287 282 273 274 276 264 275 272 263 252 269 280 268 254 243 236 231
274 275 277 266 256 208 288 345 325 272 290 304 319 356 12 2 348 341 292 264 278 286 300 308 312 310 306 290 275 240 232 242 259 268 262 247 268 307 291 269 245 249 249
Height
1526 1526 1526 1526 1526 1526 1526 1525 1525 1525 1524 1524 1524 1523 1522 1521 1520 1519 1518 1517 1516 1514 1513 1512 1511 1511 1511 1511 1512 1512 1513 1513 1514 1515 1515 1516 1516 1517 1517 1518 1518 1519 1519
1527 1526 1527 1527 1527 1526 1526 1526 1526 1525 1525 1524 1524 1524 1523 1522 1521 1521 1519 1518 1517 1516 1515 1514 1513 1513 1512 1512 1512 1512 1513 1514 1515 1515 1516 1516 1517 1518 1518 1518 1519 1520 1520
1528 1527 1527 1527 1527 1527 1527 1526 1526 1526 1525 1525 1525 1524 1524 1523 1523 1522 1521 1519 1519 1518 1516 1515 1514 1514 1513 1511 1511 1512 1513 1514 1515 1516 1517 1517 1518 1518 1519 1519 1520 1520 1521
1529 1528 1528 1528 1527 1527 1527 1527 1526 1526 1525 1525 1525 1525 1525 1524 1524 1523 1522 1521 1520 1519 1518 1517 1516 1514 1512 1510 1509 1511 1513 1514 1516 1516 1517 1518 1518 1519 1519 1520 1520 1520 1521
1530 1529 1529 1529 1528 1527 1527 1527 1527 1526 1526 1525 1525 1526 1526 1525 1525 1525 1524 1523 1522 1520 1520 1518 1517 1516 1513 1510 1509 1511 1513 1515 1516 1517 1518 1518 1519 1519 1520 1520 1520 1520 1521
1530 1529 1529 1529 1528 1528 1527 1527 1527 1526 1526 1526 1526 1526 1526 1526 1526 1525 1525 1524 1523 1522 1521 1520 1519 1517 1515 1514 1513 1514 1515 1516 1517 1517 1518 1519 1519 1520 1520 1520 1520 1520 1520
1530 1530 1529 1529 1528 1528 1528 1527 1527 1527 1526 1526 1526 1526 1526 1526 1526 1526 1526 1525 1525 1524 1522 1521 1520 1519 1518 1517 1517 1517 1517 1517 1518 1518 1518 1519 1519 1519 1520 1520 1520 1520 1520
1530 1530 1529 1529 1528 1528 1528 1527 1527 1527 1527 1526 1526 1526 1526 1528 1527 1526 1526 1526 1525 1525 1524 1523 1522 1521 1520 1519 1519 1519 1519 1518 1519 1519 1519 1519 1519 1519 1520 1520 1520 1520 1520
1529 1529 1529 1529 1528 1528 1527 1527 1527 1527 1527 1527 1527 1527 1527 1527 1527 1527 1526 1526 1526 1525 1524 1524 1523 1522 1521 1520 1520 1519 1519 1519 1519 1519 1519 1519 1519 1519 1520 1520 1520 1520 1520
1529 1528 1528 1528 1527 1527 1527 1527 1527 1527 1527 1526 1527 1527 1528 1528 1528 1527 1527 1527 1526 1525 1525 1524 1523 1522 1521 1521 1520 1520 1519 1519 1519 1519 1519 1519 1519 1519 1519 1520 1519 1519 1519
1528 1527 1527 1527 1527 1526 1527 1526 1527 1527 1527 1527 1526 1527 1527 1527 1527 1527 1526 1526 1526 1525 1525 1524 1523 1523 1522 1521 1520 1520 1520 1519 1519 1518 1518 1518 1518 1519 1519 1519 1519 1519 1519
1527 1526 1526 1526 1526 1525 1526 1525 1526 1526 1526 1526 1526 1526 1526 1526 1526 1526 1525 1525 1524 1524 1524 1524 1523 1522 1522 1521 1520 1520 1519 1518 1518 1518 1517 1517 1517 1518 1518 1518 1518 1518 1518
1526 1526 1525 1525 1525 1524 1524 1524 1525 1525 1525 1525 1525 1525 1525 1525 1525 1525 1525 1524 1524 1524 1523 1523 1523 1522 1521 1520 1519 1519 1518 1518 1517 1516 1516 1516 1516 1517 1517 1517 1517 1517 1517
1525 1524 1524 1524 1523 1523 1523 1523 1523 1524 1524 1524 1524 1524 1524 1524 1524 1524 1524 1523 1522 1522 1522 1522 1522 1521 1520 1520 1519 1518 1517 1517 1516 1515 1515 1515 1515 1515 1515 1516 1516 1516 1516
1523 1523 1523 1522 1522 1521 1521 1521 1521 1522 1522 1522 1522 1522 1523 1523 1523 1522 1522 1522 1522 1521 1521 1521 1520 1520 1519 1519 1518 1517 1516 1516 1515 1514 1514 1513 1513 1514 1514 1514 1514 1514 1514
1521 1521 1521 1521 1520 1520 1520 1519 1519 1520 1520 1520 1520 1520 1520 1520 1520 1520 1520 1520 1520 1520 1519 1519 1519 1518 1518 1517 1517 1516 1515 1515 1514 1513 1513 1512 1512 1512 1512 1512 1512 1513 1512
1519 1519 1518 1518 1518 1518 1518 1517 1517 1517 1518 1518 1518 1518 1518 1518 1518 1518 1518 1518 1518 1518 1517 1517 1517 1516 1516 1515 1515 1514 1514 1513 1512 1512 1511 1511 1510 1510 1510 1510 1510 1510 1510
1517 1516 1516 1516 1515 1515 1515 1515 1514 1515 1515 1515 1515 1516 1516 1516 1515 1515 1515 1515 1515 1515 1515 1514 1514 1514 1514 1513 1513 1512 1512 1511 1511 1510 1510 1509 1509 1509 1508 1508 1508 1508 1508
1514 1514 1514 1513 1513 1513 1512 1512 1512 1512 1512 1512 1513 1513 1513 1513 1512 1512 1513 1512 1512 1512 1512 1512 1511 1511 1511 1511 1510 1510 1509 1509 1509 1508 1508 1508 1507 1507 1507 1506 1506 1506 1506
1511 1511 1511 1510 1510 1510 1509 1509 1509 1509 1509 1510 1510 1510 1510 1510 1510 1510 1510 1510 1510 1509 1509 1509 1508 1508 1508 1507 1507 1506 1506 1506 1506 1506 1506 1505 1505 1504 1504 1504 1504 1503 1503
1508 1508 1508 1507 1507 1507 1507 1506 1506 1506 1506 1507 1507 1507 1507 1507 1507 1507 1507 1507 1507 1506 1506 1506 1505 1505 1505 1504 1504 1504 1503 1503 1503 1503 1502 1502 1502 1501 1501 1501 1501 1501 1500
1505 1505 1504 1504 1504 1504 1504 1504 1504 1503 1503 1503 1503 1503 1504 1504 1504 1504 1503 1504 1504 1503 1503 1503 1502 1502 1502 1502 1501 1501 1501 1500 1499 1500 1499 1499 1499 1498 1498 1498 1498 1498 1497
1502 1502 1501 1501 1501 1501 1501 1501 1500 1500 1500 1500 1500 1500 1500 1500 1500 1500 1500 1500 1500 1500 1500 1500 1499 1499 1499 1499 1498 1497 1497 1497 1496 1496 1496 1495 1495 1494 1495 1495 1495 1495 1494
1499 1499 1498 1498 1498 1498 1497 1497 1497 1497 1497 1497 1497 1497 1497 1497 1497 1497 1496 1496 1496 1496 1496 1496 1496 1496 1496 1495 1495 1494 1494 1493 1493 1493 1493 1492 1491 1491 1491 1491 1491 1491 1491
1496 1496 1495 1495 1494 1494 1494 1494 1494 1493 1493 1493 1493 1493 1493 1493 1493 1493 1493 1492 1492 1492 1492 1492 1492 1492 1492 1491 1491 1491 1490 1490 1488 1488 1489 1489 1488 1487 1487 1487 1487 1487 1487
1493 1492 1492 1492 1491 1491 1491 1491 1491 1490 1490 1490 1489 1489 1489 1489 1489 1489 1489 1488 1487 1487 1488 1487 1487 1487 1487 1487 1487 1487 1486 1486 1485 1485 1485 1485 1484 1484 1483 1483 1483 1484 1484